Regional Weather Roundup
Issued by NWS Newport/Morehead, NC

Current Version | Previous Version | Graphics & Text | Print | Product List | Glossary Off
Versions: 1 2 3 4 5 6 7 8 9 10 11 12 13 14 15 16 17 18 19 20 21 22 23 24 25 26 27 28 29 30 31 32 33 34 35 36 37 38 39 40 41 42 43 44 45 46 47 48 49 50

000
ASUS42 KMHX 110813
RWRMHX
WEATHER ROUNDUP FOR EASTERN NORTH CAROLINA
NATIONAL WEATHER SERVICE NEWPORT/MOREHEAD CITY NC
300 AM EST MON DEC 11 2017

NOTE: "FAIR" INDICATES FEW OR NO CLOUDS BELOW 12,000 FEET
WITH NO SIGNIFICANT WEATHER AND/OR OBSTRUCTIONS TO VISIBILITY

NCZ015>017-031-032-045>047-102-103-110900-
NORTH COAST

CITY           SKY/WX    TMP DP  RH WIND       PRES   REMARKS
EDENTON        CLEAR     37  32  80 S6        30.14F
ELIZABETH CITY CLEAR     36  31  82 S10       30.11F
KITTY HAWK     SUNNY     37  31  77 SW3       30.12F
MANTEO         CLEAR     38  32  79 W10       30.15F

$$

NCZ045>047-081-094-103-104-110900-
CENTRAL COAST

CITY           SKY/WX    TMP DP  RH WIND       PRES   REMARKS
FRISCO         CLEAR     43  32  65 W8        30.16S

$$

NCZ095-097-098-100-101-110900-
SOUTHERN COAST

CITY           SKY/WX    TMP DP  RH WIND       PRES   REMARKS
BEAUFORT       CLEAR     42  30  62 W9        30.17F
CEDAR ISLAND   NOT AVBL
JACKSONVILLE   CLEAR     34  28  79 SW3       30.17F
PINEY ISLAND     N/A    N/A N/A N/A W9        30.17F
WILMINGTON     CLEAR     37  28  70 SW6       30.18F


$$

NCZ011>013-027>030-043-044-078>080-089-090>093-098-110900-
COASTAL PLAIN

CITY           SKY/WX    TMP DP  RH WIND       PRES   REMARKS
AHOSKIE        CLEAR     30  27  87 CALM      30.12F
CLINTON        CLEAR     33  29  85 CALM      30.17F
ELIZABETHTOWN  NOT AVBL
GOLDSBORO      CLEAR     32  26  77 SW5       30.14S
GREENVILLE     CLEAR     32  27  80 SW5       30.16S
HAVELOCK       CLEAR     34  28  79 SW8       30.18S
KENANSVILLE    CLEAR     27  27 100 CALM      30.17S FOG
KINSTON        CLEAR     32  28  84 SW7       30.16F
NEW BERN       CLEAR     32  27  81 SW5       30.17F
RICHLANDS      CLEAR     29  27  92 SW5       30.17F
ROCKY MOUNT    CLEAR     30  27  88 S5        30.13F
WASHINGTON     CLEAR     33  27  78 SW6       30.16S
WHITEVILLE     CLEAR     32  28  86 CALM      30.17F

$$

AMZ130-135-150-152-154-156-158-170-250-252-270-ANZ085-086-088-633-658-670-110900-
MARINE OBSERVATIONS

STATION/POSITION TIME  TEMP    WIND        PRES    WAVE   SWELL
                       AIR SEA DIR/SP/G            HT/PER HT/PER
                 (UTC) (F)     (DEG/KT/KT) (MB)    (FT/S) (FT/S)
CHESAPEAKE LIGHT NOT AVBL
64 E VA BEACH    0750   47 60  250/ 19/ 25 1019.4    5/ 5   2/ 9
DUCK             0736   42 53  240/ 14/ 17 1019.9
2 E DUCK         0800      54                N/A     2/ 8
OREGON INLET     0736   43 47  230/ 17/ 20 1020.8
13E OREGON INLT  0748      57                N/A     4/ 8   3/ 8
HATTERAS CG      0736   45 53  260/ 13/ 19 1021.1
DIAMOND BUOY     0800   52 72  270/ 19/ 25 1021.1
CAPE LOOKOUT     0800          270/ 12/ 15 1021.6
BEAUFORT LAB     0736   44 51  260/  5/  9 1021.6
30 SE NEW RVR IN 0708   52 68  260/ 14/ 19 1021.8
30 SE NEW RVR IN 0800      68                N/A     4/ 5
27 SE WRIGHTSVLE 0708   51 66  260/ 16/ 25 1022.0
5 SE WRIGHTSVLE  0708   47 58  270/ 16/ 19 1021.8
225 S CAPE HAT   0750   60 76  300/ 12/ 16 1021.6    6/ 8   5/ 8
41 SE CHARLESTON 0800      74  270/ 17/ 23 1023.1

$$




USA.gov is the U.S. government's official web portal to all federal, state and local government web resources and services.